1502042401.04,6053,24.31,74498.8,7.85,-3.63,-2.51,0,*47
1502042402.29,6054,24.31,74500.3,7.85,-3.63,-2.47,0,*47
1502042403.5,6055,24.31,74502.5,7.85,-3.59,-2.39,0,*46
1502042404.72,6056,24.31,74502.5,7.85,-3.59,-2.39,0,*45
1502042405.94,6057,24.31,74498.8,7.85,-3.51,-2.39,0,*4C
1502042407.15,6058,24.31,74500.5,7.85,-3.51,-2.39,0,*43
1502042408.37,6059,24.31,74500.8,7.85,-3.51,-2.39,0,*42
1502042409.63,6060,24.31,74498.0,7.83,-3.67,-2.51,0,*45
1502042410.88,6061,24.31,74500.0,7.81,-3.63,-2.51,0,*42
1502042412.14,6062,24.31,74498.3,7.83,-3.55,-2.51,0,*46
1502042413.38,6063,24.31,74500.8,7.83,-3.51,-2.39,0,*4D
1502042414.61,6064,24.31,74500.5,7.83,-3.51,-2.39,0,*4A
1502042415.85,6065,24.31,74502.5,7.83,-3.51,-2.31,0,*43
1502042417.07,6066,24.31,74500.3,7.81,-3.51,-2.31,0,*42
1502042418.31,6067,24.31,74500.5,7.83,-3.43,-2.31,0,*42
1502042419.52,6068,24.31,74502.5,7.83,-3.39,-2.31,0,*40
1502042420.73,6069,24.25,74498.8,7.83,-3.31,-2.27,0,*4E
1502042421.92,6070,24.31,74500.0,7.81,-3.39,-2.27,0,*4C
1502042423.11,6071,24.25,74500.0,7.81,-3.39,-2.27,0,*4D
1502042424.3,6072,24.31,74500.0,7.81,-3.27,-2.15,0,*40
1502042425.51,6073,24.31,74500.8,7.83,-3.27,-2.15,0,*43
1502042426.72,6074,24.31,74502.3,7.83,-3.19,-2.15,0,*49
1502042427.91,6075,24.31,74500.5,7.81,-3.19,-2.15,0,*4A
1502042429.1,6076,24.31,74502.5,7.81,-3.19,-2.19,0,*45
1502042430.29,6077,24.31,74500.0,7.81,-3.27,-2.27,0,*44
1502042431.48,6078,24.25,74496.5,7.81,-3.27,-2.19,0,*46
1502042432.67,6079,24.31,74500.5,7.81,-3.15,-2.19,0,*46
1502042433.86,6080,24.31,74498.8,7.81,-3.15,-2.15,0,*4C
1502042435.05,6081,24.31,74502.8,7.81,-3.07,-2.15,0,*4E
1502042436.23,6082,24.25,74500.0,7.81,-3.07,-2.15,0,*4D
1502042437.42,6083,24.31,74498.5,7.81,-3.07,-2.19,0,*40
1502042438.61,6084,24.31,74500.3,7.81,-3.03,-2.15,0,*4F
1502042439.79,6085,24.31,74500.5,7.79,-3.07,-2.19,0,*41
1502042440.98,6086,24.31,74500.8,7.81,-3.03,-2.15,0,*4D
1502042442.17,6087,24.31,74502.5,7.81,-2.95,-2.15,0,*42
1502042443.39,6088,24.31,74498.0,7.81,-3.03,-2.07,0,*40
1502042444.6,6089,24.31,74498.8,7.81,-2.91,-2.03,0,*4F
1502042445.8,6090,24.31,74500.8,7.79,-2.91,-2.07,0,*44
1502042447.02,6091,24.31,74498.8,7.79,-2.95,-2.07,0,*41
1502042448.22,6092,24.25,74498.3,7.79,-2.83,-2.07,0,*45
1502042449.42,6093,24.25,74496.5,7.79,-2.83,-1.95,0,*4C
1502042450.66,6094,24.31,74500.3,7.81,-2.67,-1.87,0,*45
1502042451.89,6095,24.25,74496.0,7.81,-2.75,-1.91,0,*40
1502042453.15,6096,24.25,74496.3,7.83,-2.75,-1.91,0,*41
1502042454.38,6097,24.31,74498.8,7.79,-2.71,-1.95,0,*45
1502042455.6,6098,24.31,74498.8,7.79,-2.71,-1.95,0,*4A
1502042456.83,6099,24.31,74500.0,7.79,-2.71,-1.83,0,*4C
1502042458.1,6100,24.31,74498.5,7.77,-2.63,-1.83,0,*40
1502042459.34,6101,24.25,74496.5,7.77,-2.63,-1.79,0,*44
1502042460.56,6102,24.31,74498.5,7.79,-2.67,-1.91,0,*4B
1502042461.79,6103,24.31,74498.8,7.79,-2.67,-1.91,0,*4A
1502042463.0,6104,24.31,74498.3,7.79,-2.67,-1.79,0,*4B
1502042464.25,6105,24.25,74498.5,7.77,-2.59,-1.83,0,*4C
1502042465.46,6106,24.31,74498.0,7.79,-2.63,-1.79,0,*4D
1502042466.72,6107,24.31,74500.0,7.77,-2.59,-1.83,0,*4E
1502042467.93,6108,24.31,74498.5,7.79,-2.55,-1.79,0,*46
1502042469.16,6109,24.31,74496.8,7.79,-2.55,-1.83,0,*42
1502042470.39,6110,24.31,74498.0,7.79,-2.59,-1.83,0,*46
1502042471.6,6111,24.31,74500.0,7.79,-2.59,-1.71,0,*4A
1502042472.8,6112,24.31,74500.8,7.79,-2.55,-1.71,0,*45
1502042474.02,6113,24.31,74496.8,7.79,-2.47,-1.67,0,*40
1502042475.22,6114,24.25,74496.5,7.79,-2.47,-1.59,0,*4A
1502042476.41,6115,24.31,74496.5,7.79,-2.35,-1.67,0,*43
1502042477.61,6116,24.25,74498.5,7.77,-2.39,-1.59,0,*4F
1502042478.78,6117,24.25,74498.8,7.79,-2.43,-1.55,0,*41
1502042479.96,6118,24.25,74498.0,7.79,-2.35,-1.55,0,*4F
1502042481.14,6119,24.31,74502.8,7.79,-2.23,-1.59,0,*45
1502042482.34,6120,24.25,74496.3,7.79,-2.31,-1.47,0,*43
1502042483.52,6121,24.25,74500.3,7.79,-2.31,-1.55,0,*41
1502042484.73,6122,24.31,74500.8,7.77,-2.35,-1.59,0,*44
1502042485.94,6123,24.25,74502.0,7.77,-2.35,-1.51,0,*4D
1502042487.14,6124,24.25,74502.0,7.77,-2.27,-1.51,0,*49
1502042488.35,6125,24.25,74498.0,7.77,-2.23,-1.59,0,*44
1502042489.59,6126,24.25,74496.8,7.79,-2.11,-1.47,0,*47
1502042490.79,6127,24.25,74496.8,7.77,-2.23,-1.51,0,*4E
1502042492.0,6128,24.25,74500.5,7.79,-2.19,-1.47,0,*41
1502042493.21,6129,24.31,74500.5,7.77,-2.15,-1.51,0,*45
1502042494.41,6130,24.25,74496.3,7.77,-2.15,-1.51,0,*4D
1502042495.65,6131,24.25,74500.5,7.77,-2.15,-1.47,0,*4B
1502042496.91,6132,24.25,74498.3,7.77,-2.11,-1.47,0,*4C
1502042498.15,6133,24.31,74500.0,7.79,-2.07,-1.43,0,*40
1502042499.36,6134,24.25,74498.3,7.79,-2.03,-1.21,0,*47
1502042500.56,6135,24.25,74498.0,7.79,-2.03,-1.29,0,*4E
1502042501.83,6136,24.25,74496.3,7.77,-2.07,-1.35,0,*4A
1502042503.09,6137,24.25,74498.8,7.77,-2.07,-1.39,0,*47
1502042504.33,6138,24.25,74496.8,7.77,-2.11,-1.33,0,*45
1502042505.53,6139,24.25,74498.8,7.79,-2.03,-1.29,0,*42
1502042506.74,6140,24.25,74496.3,7.79,-1.95,-1.21,0,*48
1502042507.99,6141,24.25,74498.3,7.77,-1.95,-1.13,0,*46
1502042509.22,6142,24.31,74502.0,7.79,-1.83,-1.09,0,*47
1502042510.47,6143,24.25,74502.3,7.77,-1.87,-1.13,0,*47
1502042511.67,6144,24.25,74496.5,7.79,-1.79,-0.97,0,*72
1502042512.87,6145,24.25,74496.8,7.79,-1.71,-0.97,0,*7B
1502042514.13,6146,24.25,74500.0,7.77,-1.83,-1.01,0,*45
1502042515.36,6147,24.31,74500.0,7.79,-1.83,-1.09,0,*42
1502042516.54,6148,24.25,74498.0,7.79,-1.79,-1.17,0,*47
1502042517.79,6149,24.25,74498.5,7.77,-1.87,-1.09,0,*46
1502042519.05,6150,24.25,74496.3,7.77,-1.83,-1.13,0,*41
1502042520.28,6151,24.25,74496.0,7.77,-1.75,-1.01,0,*4A
1502042521.54,6152,24.31,74500.8,7.77,-1.83,-1.09,0,*48
1502042522.8,6153,24.25,74498.3,7.77,-1.83,-1.09,0,*49
1502042524.03,6154,24.25,74498.3,7.77,-1.75,-1.01,0,*4F
1502042525.23,6155,24.25,74496.5,7.79,-1.71,-0.93,0,*7E
1502042526.42,6156,24.25,74496.3,7.79,-1.67,-0.93,0,*7A
1502042527.62,6157,24.25,74500.0,7.79,-1.67,-0.85,0,*7C
1502042528.85,6158,24.31,74498.5,7.77,-1.71,-0.97,0,*79
1502042530.04,6159,24.25,74496.3,7.79,-1.59,-0.93,0,*78
1502042531.26,6160,24.25,74496.0,7.77,-1.63,-0.97,0,*71
1502042532.45,6161,24.31,74498.0,7.79,-1.59,-0.85,0,*74
1502042533.64,6162,24.25,74496.3,7.79,-1.59,-0.85,0,*77
1502042534.83,6163,24.31,74498.8,7.79,-1.59,-0.93,0,*71
1502042536.02,6164,24.25,74496.3,7.79,-1.59,-0.93,0,*76
1502042537.25,6165,24.25,74498.5,7.77,-1.63,-0.89,0,*7B
1502042538.47,6166,24.25,74498.5,7.77,-1.59,-0.89,0,*71
1502042539.67,6167,24.25,74500.0,7.77,-1.51,-0.77,0,*79
1502042540.93,6168,24.25,74492.8,7.77,-1.47,-0.85,0,*7C
1502042542.13,6169,24.25,74496.3,7.79,-1.47,-0.73,0,*7A
1502042543.37,6170,24.25,74498.0,7.77,-1.47,-0.73,0,*7C
1502042544.54,6171,24.25,74498.8,7.79,-1.33,-0.61,0,*73
1502042545.72,6172,24.31,74498.3,7.79,-1.33,-0.61,0,*70
1502042546.94,6173,24.25,74496.8,7.77,-1.35,-0.65,0,*7D
1502042548.12,6174,24.25,74496.5,7.79,-1.33,-0.69,0,*7E
1502042549.35,6175,24.25,74494.5,7.77,-1.35,-0.65,0,*7B
1502042550.58,6176,24.25,74496.3,7.77,-1.35,-0.73,0,*7F
1502042551.81,6177,24.25,74496.5,7.77,-1.35,-0.73,0,*7E
1502042553.01,6178,24.25,74496.5,7.79,-1.35,-0.57,0,*79
1502042554.24,6179,24.25,74498.0,7.77,-1.35,-0.53,0,*72
1502042555.42,6180,24.25,74494.5,7.79,-1.33,-0.61,0,*7D
1502042556.64,6181,24.25,74496.5,7.77,-1.35,-0.65,0,*70
1502042557.82,6182,24.25,74496.3,7.79,-1.21,-0.61,0,*7C
1502042559.0,6183,24.25,74496.3,7.79,-1.21,-0.57,0,*78
1502042560.18,6184,24.25,74498.3,7.79,-1.29,-0.57,0,*77
1502042561.36,6185,24.25,74494.5,7.79,-1.21,-0.49,0,*71
1502042562.54,6186,24.25,74498.8,7.79,-1.21,-0.57,0,*7D
1502042563.74,6187,24.25,74496.3,7.79,-1.09,-0.45,0,*75
1502042564.94,6188,24.25,74496.5,7.79,-1.09,-0.45,0,*7A
1502042566.12,6189,24.25,74496.3,7.79,-1.29,-0.57,0,*7A
1502042567.3,6190,24.25,74496.8,7.79,-1.21,-0.57,0,*7A
1502042568.48,6191,24.25,74498.8,7.79,-1.17,-0.49,0,*71
1502042569.68,6192,24.25,74498.0,7.79,-1.09,-0.45,0,*71
1502042570.88,6193,24.25,74498.3,7.79,-1.09,-0.45,0,*70
1502042572.09,6194,24.25,74496.8,7.79,-1.09,-0.49,0,*7B
1502042573.27,6195,24.25,74498.8,7.79,-1.17,-0.49,0,*75
1502042574.48,6196,24.25,74496.3,7.79,-1.05,-0.45,0,*79
1502042575.68,6197,24.25,74496.5,7.79,-1.09,-0.49,0,*78
1502042576.88,6198,24.25,74498.8,7.79,-1.09,-0.49,0,*77
1502042578.07,6199,24.25,74496.8,7.79,-1.17,-0.57,0,*76
1502042579.25,6200,24.25,74498.0,7.79,-1.17,-0.57,0,*75
1502042580.43,6201,24.25,74498.5,7.79,-1.17,-0.57,0,*74
1502042581.63,6202,24.25,74498.3,7.79,-1.09,-0.57,0,*78
1502042582.83,6203,24.25,74498.8,7.79,-1.09,-0.49,0,*76
1502042584.03,6204,24.25,74498.5,7.79,-1.09,-0.49,0,*71
1502042585.24,6205,24.25,74498.5,7.79,-1.09,-0.49,0,*70
1502042586.44,6206,24.25,74496.5,7.79,-1.05,-0.45,0,*73
1502042587.65,6207,24.25,74496.8,7.79,-1.05,-0.41,0,*76
1502042588.86,6208,24.25,74496.0,7.79,-1.05,-0.57,0,*7E
1502042590.06,6209,24.25,74498.8,7.79,-0.97,-0.45,0,*46
1502042591.27,6210,24.25,74498.0,7.79,-1.05,-0.45,0,*74
1502042592.46,6211,24.25,74492.8,7.79,-0.97,-0.45,0,*4F
1502042593.69,6212,24.25,74496.8,7.77,-0.97,-0.53,0,*45
1502042594.89,6213,24.25,74496.8,7.79,-0.93,-0.41,0,*4D
1502042596.09,6214,24.25,74498.3,7.79,-0.93,-0.41,0,*4A
1502042597.29,6215,24.25,74498.8,7.79,-0.93,-0.45,0,*4F
1502042598.49,6216,24.25,74496.3,7.79,-0.85,-0.41,0,*4F
1502042599.69,6217,24.25,74498.5,7.79,-0.85,-0.41,0,*4E
1502042600.9,6218,24.25,74496.0,7.79,-0.97,-0.41,0,*42
1502042602.13,6219,24.25,74498.8,7.77,-0.97,-0.49,0,*45
1502042603.32,6220,24.25,74494.5,7.79,-0.93,-0.45,0,*49
1502042604.52,6221,24.25,74498.8,7.79,-0.93,-0.45,0,*48
1502042605.72,6222,24.25,74498.0,7.79,-0.85,-0.41,0,*48
1502042606.92,6223,24.25,74496.3,7.79,-0.85,-0.41,0,*49
1502042608.13,6224,24.25,74502.0,7.81,-0.89,-0.41,0,*45
1502042609.32,6225,24.25,74498.3,7.81,-0.81,-0.41,0,*4C
1502042610.51,6226,24.25,74502.5,7.81,-0.81,-0.41,0,*4F
1502042611.72,6227,24.25,74498.5,7.79,-0.85,-0.41,0,*4D
1502042612.92,6228,24.25,74498.0,7.79,-0.85,-0.49,0,*4A
1502042614.09,6229,24.25,74494.8,7.79,-0.81,-0.49,0,*4F
1502042615.33,6230,24.25,74496.8,7.77,-0.97,-0.49,0,*4E
1502042616.56,6231,24.25,74496.0,7.77,-0.89,-0.49,0,*40
1502042617.76,6232,24.25,74496.8,7.79,-0.85,-0.41,0,*49
1502042618.94,6233,24.25,74500.3,7.79,-0.81,-0.41,0,*4C
1502042620.12,6234,24.25,74500.5,7.79,-0.73,-0.45,0,*42
1502042621.34,6235,24.25,74498.0,7.77,-0.85,-0.45,0,*44
1502042622.52,6236,24.25,74498.3,7.79,-0.81,-0.45,0,*4D
1502042623.71,6237,24.25,74496.8,7.79,-0.85,-0.57,0,*4B
1502042624.94,6238,24.25,74496.5,7.77,-0.97,-0.61,0,*4C
1502042626.12,6239,24.25,74498.8,7.79,-0.81,-0.49,0,*4E
1502042627.31,6240,24.25,74496.8,7.79,-0.93,-0.57,0,*4C
1502042628.5,6241,24.25,74498.3,7.79,-0.93,-0.61,0,*48
1502042629.69,6242,24.25,74498.8,7.79,-0.85,-0.61,0,*4C
1502042630.88,6243,24.25,74498.5,7.79,-0.93,-0.57,0,*4F
1502042632.08,6244,24.25,74498.8,7.77,-0.77,-0.53,0,*48
1502042633.27,6245,24.25,74498.3,7.79,-0.81,-0.41,0,*4D
1502042634.44,6246,24.25,74498.8,7.79,-0.69,-0.45,0,*4C
1502042635.6,6247,24.25,74502.3,7.79,-0.61,-0.45,0,*45
1502042636.78,6248,24.25,74502.3,7.79,-0.69,-0.45,0,*42
1502042637.95,6249,24.25,74502.3,7.79,-0.69,-0.45,0,*43
1502042639.12,6250,24.25,74500.0,7.79,-0.69,-0.45,0,*4B
1502042640.3,6251,24.25,74502.5,7.79,-0.69,-0.45,0,*4A
1502042641.47,6252,24.25,74500.3,7.79,-0.69,-0.45,0,*49
1502042642.64,6253,24.25,74498.0,7.79,-0.61,-0.41,0,*44
1502042643.85,6254,24.25,74498.8,7.77,-0.73,-0.45,0,*4A
1502042645.02,6255,24.25,74498.3,7.79,-0.69,-0.45,0,*4E
1502042646.22,6256,24.25,74496.5,7.77,-0.77,-0.53,0,*4B
1502042647.42,6257,24.25,74498.8,7.77,-0.77,-0.49,0,*41
1502042648.6,6258,24.25,74496.8,7.79,-0.69,-0.49,0,*4F
1502042649.77,6259,24.25,74496.3,7.79,-0.61,-0.45,0,*4A
1502042650.94,6260,24.25,74496.0,7.79,-0.61,-0.41,0,*44
1502042652.14,6261,24.25,74498.8,7.77,-0.65,-0.45,0,*4B
1502042653.31,6262,24.25,74500.3,7.79,-0.61,-0.41,0,*46
1502042654.48,6263,24.25,74498.0,7.79,-0.49,-0.33,0,*48
1502042655.68,6264,24.25,74496.0,7.77,-0.61,-0.45,0,*4A
1502042656.86,6265,24.25,74498.8,7.79,-0.57,-0.41,0,*44
1502042658.04,6266,24.25,74498.5,7.79,-0.57,-0.41,0,*47
1502042659.21,6267,24.25,74496.3,7.79,-0.49,-0.41,0,*49
1502042660.41,6268,24.25,74494.5,7.77,-0.61,-0.45,0,*46
1502042661.58,6269,24.25,74500.8,7.79,-0.49,-0.41,0,*47
1502042662.76,6270,24.25,74496.5,7.79,-0.57,-0.45,0,*44
1502042663.93,6271,24.25,74496.3,7.79,-0.57,-0.45,0,*45
1502042665.1,6272,24.25,74498.3,7.79,-0.69,-0.57,0,*48
1502042666.32,6273,24.25,74496.8,7.77,-0.85,-0.61,0,*40
1502042667.52,6274,24.25,74496.3,7.77,-0.77,-0.61,0,*4A
1502042668.72,6275,24.25,74500.3,7.77,-0.73,-0.61,0,*4F
1502042669.88,6276,24.25,74496.5,7.79,-0.61,-0.57,0,*44
1502042671.06,6277,24.25,74498.0,7.79,-0.57,-0.45,0,*43
1502042672.22,6278,24.25,74500.0,7.79,-0.61,-0.45,0,*49
1502042673.39,6279,24.25,74498.8,7.79,-0.69,-0.57,0,*43
1502042674.57,6280,24.25,74494.5,7.79,-0.73,-0.57,0,*4E
1502042675.74,6281,24.25,74496.8,7.79,-0.73,-0.61,0,*4A
1502042676.94,6282,24.25,74498.8,7.77,-0.77,-0.61,0,*43
1502042678.14,6283,24.25,74498.3,7.77,-0.73,-0.61,0,*46
1502042679.34,6284,24.25,74496.8,7.77,-0.73,-0.61,0,*41
1502042680.54,6285,24.25,74500.3,7.77,-0.65,-0.53,0,*46
1502042681.74,6286,24.25,74496.5,7.77,-0.73,-0.61,0,*43
1502042682.94,6287,24.25,74498.8,7.77,-0.73,-0.61,0,*42
1502042684.14,6288,24.25,74496.5,7.77,-0.65,-0.61,0,*4A
1502042685.33,6289,24.25,74496.3,7.77,-0.65,-0.61,0,*4B
1502042686.53,6290,24.25,74496.3,7.77,-0.65,-0.53,0,*42
1502042687.73,6291,24.25,74498.8,7.77,-0.61,-0.53,0,*47
1502042688.93,6292,24.25,74494.8,7.77,-0.65,-0.53,0,*40
1502042690.12,6293,24.25,74498.5,7.77,-0.61,-0.53,0,*45
1502042691.32,6294,24.25,74496.8,7.77,-0.61,-0.53,0,*42
1502042692.51,6295,24.25,74496.8,7.77,-0.65,-0.61,0,*46
1502042693.71,6296,24.25,74494.0,7.77,-0.65,-0.61,0,*45
1502042694.9,6297,24.25,74492.5,7.73,-0.69,-0.57,0,*49
1502042696.09,6298,24.25,74494.3,7.77,-0.61,-0.61,0,*4F
1502042697.29,6299,24.25,74496.0,7.77,-0.65,-0.61,0,*4A
1502042698.49,6300,24.25,74498.8,7.77,-0.65,-0.53,0,*4A
1502042699.69,6301,24.25,74496.5,7.77,-0.65,-0.53,0,*4B
1502042700.86,6302,24.25,74496.8,7.75,-0.65,-0.53,0,*4A
1502042702.02,6303,24.25,74494.8,7.75,-0.61,-0.61,0,*4E
1502042703.19,6304,24.25,74496.0,7.75,-0.65,-0.61,0,*4D
1502042704.38,6305,24.25,74496.0,7.73,-0.77,-0.65,0,*4D
1502042705.55,6306,24.25,74492.8,7.75,-0.65,-0.61,0,*4F
1502042706.72,6307,24.25,74494.3,7.75,-0.73,-0.61,0,*49
1502042707.88,6308,24.25,74498.0,7.75,-0.65,-0.61,0,*41
1502042709.05,6309,24.25,74496.3,7.75,-0.65,-0.61,0,*40
1502042710.22,6310,24.25,74494.8,7.75,-0.65,-0.61,0,*48
1502042711.41,6311,24.25,74496.8,7.77,-0.61,-0.53,0,*4E
1502042712.6,6312,24.25,74498.0,7.77,-0.61,-0.61,0,*4C
1502042713.79,6313,24.25,74492.5,7.77,-0.61,-0.61,0,*4D
1502042714.99,6314,24.25,74496.3,7.77,-0.73,-0.61,0,*49
1502042716.16,6315,24.25,74496.8,7.75,-0.65,-0.65,0,*49
1502042717.35,6316,24.25,74496.5,7.73,-0.69,-0.69,0,*4C
1502042718.53,6317,24.25,74494.5,7.75,-0.77,-0.73,0,*4F
1502042719.7,6318,24.25,74498.0,7.75,-0.65,-0.65,0,*44
1502042720.86,6319,24.25,74492.8,7.75,-0.77,-0.65,0,*46
1502042722.03,6320,24.25,74498.3,7.75,-0.73,-0.65,0,*48
1502042723.21,6321,24.25,74494.5,7.75,-0.73,-0.65,0,*49
1502042724.37,6322,24.25,74496.3,7.75,-0.65,-0.65,0,*4D
1502042725.54,6323,24.25,74494.0,7.75,-0.65,-0.65,0,*4C
1502042726.74,6324,24.25,74498.5,7.73,-0.81,-0.69,0,*4B
1502042727.91,6325,24.25,74498.3,7.75,-0.65,-0.65,0,*4A
1502042729.1,6326,24.25,74496.8,7.73,-0.77,-0.69,0,*40
1502042730.28,6327,24.25,74494.8,7.75,-0.77,-0.73,0,*4C
1502042731.5,6328,24.25,74494.5,7.73,-0.89,-0.81,0,*49
1502042732.67,6329,24.25,74496.3,7.75,-0.77,-0.77,0,*46
1502042733.84,6330,24.25,74498.3,7.75,-0.77,-0.73,0,*4A
1502042735.04,6331,24.25,74496.0,7.73,-0.81,-0.69,0,*4F
1502042736.26,6332,24.25,74494.0,7.73,-0.89,-0.81,0,*42
1502042737.46,6333,24.25,74498.3,7.75,-0.85,-0.77,0,*40
1502042738.66,6334,24.25,74498.8,7.75,-0.85,-0.77,0,*47
1502042739.86,6335,24.25,74496.5,7.75,-0.89,-0.77,0,*4A
1502042741.05,6336,24.25,74494.0,7.73,-0.81,-0.81,0,*4E
1502042742.25,6337,24.25,74494.8,7.75,-0.85,-0.73,0,*40
1502042743.47,6338,24.25,74494.5,7.75,-0.85,-0.85,0,*46
1502042744.71,6339,24.25,74494.8,7.73,-0.93,-0.89,0,*4A
1502042745.92,6340,24.25,74494.8,7.73,-0.93,-0.81,0,*4C
1502042747.14,6341,24.25,74494.0,7.73,-0.89,-0.81,0,*46
1502042748.36,6342,24.25,74494.0,7.73,-0.89,-0.81,0,*45
1502042749.6,6343,24.25,74494.8,7.73,-0.89,-0.89,0,*4C
1502042750.8,6344,24.25,74494.3,7.73,-0.81,-0.81,0,*4B
1502042752.0,6345,24.25,74492.8,7.73,-0.77,-0.69,0,*45
1502042753.2,6346,24.25,74494.8,7.73,-0.81,-0.81,0,*49
1502042754.4,6347,24.25,74496.3,7.73,-0.81,-0.77,0,*41
1502042755.6,6348,24.25,74496.8,7.73,-0.81,-0.77,0,*4E
1502042756.82,6349,24.25,74496.5,7.73,-0.89,-0.81,0,*4E
1502042758.07,6350,24.25,74492.0,7.73,-1.01,-0.89,0,*7F
1502042759.28,6351,24.25,74494.3,7.75,-0.97,-0.89,0,*46
1502042760.52,6352,24.25,74492.8,7.73,-0.93,-0.93,0,*4C
1502042761.77,6353,24.25,74494.8,7.73,-1.01,-0.93,0,*77
1502042762.99,6354,24.25,74494.5,7.73,-1.01,-0.81,0,*73
1502042764.21,6355,24.25,74494.8,7.73,-0.93,-0.81,0,*48
1502042765.45,6356,24.25,74498.5,7.73,-0.89,-0.89,0,*48
1502042766.67,6357,24.25,74492.8,7.75,-0.85,-0.85,0,*4F
1502042767.87,6358,24.25,74494.3,7.73,-0.81,-0.81,0,*46
1502042769.04,6359,24.25,74494.3,7.71,-0.81,-0.81,0,*45
1502042770.29,6360,24.25,74494.0,7.73,-1.01,-0.89,0,*7C
1502042771.5,6361,24.25,74494.5,7.75,-0.93,-0.85,0,*4D
1502042772.76,6362,24.25,74492.5,7.73,-1.05,-1.01,0,*4B
1502042773.97,6363,24.25,74492.8,7.73,-0.93,-0.81,0,*4D
1502042775.17,6364,24.25,74492.8,7.75,-0.85,-0.73,0,*46
1502042776.41,6365,24.25,74492.0,7.73,-0.89,-0.89,0,*48
1502042777.67,6366,24.25,74494.8,7.73,-1.05,-1.01,0,*4F
1502042778.93,6367,24.25,74492.8,7.73,-1.05,-1.01,0,*4E
1502042780.17,6368,24.25,74492.8,7.73,-1.05,-0.93,0,*7B
1502042781.42,6369,24.25,74492.8,7.73,-1.01,-0.93,0,*7E
1502042782.66,6370,24.25,74494.0,7.73,-0.93,-0.93,0,*4C
1502042783.91,6371,24.25,74492.0,7.73,-1.13,-1.01,0,*4E
1502042785.13,6372,24.25,74494.3,7.73,-1.25,-1.13,0,*4B
1502042786.37,6373,24.25,74492.8,7.73,-1.17,-1.05,0,*4C
1502042787.61,6374,24.25,74494.5,7.73,-1.13,-0.93,0,*71
1502042788.84,6375,24.25,74494.8,7.73,-1.17,-1.13,0,*4D
1502042790.07,6376,24.25,74492.0,7.73,-1.17,-1.13,0,*4E
1502042791.3,6377,24.25,74494.8,7.73,-1.25,-1.13,0,*4E
1502042792.53,6378,24.25,74494.8,7.73,-1.17,-1.13,0,*40
1502042793.76,6379,24.25,74496.8,7.73,-1.25,-1.05,0,*47
1502042794.96,6380,24.25,74492.8,7.73,-1.25,-1.17,0,*42
1502042796.17,6381,24.25,74492.8,7.73,-1.29,-1.17,0,*4F
1502042797.37,6382,24.25,74494.5,7.73,-1.25,-1.17,0,*40
1502042798.59,6383,24.25,74492.3,7.73,-1.25,-1.13,0,*45
1502042799.8,6384,24.25,74492.0,7.71,-1.17,-1.13,0,*41
1502042800.98,6385,24.25,74494.8,7.71,-1.29,-1.17,0,*49
1502042802.17,6386,24.25,74494.8,7.67,-1.33,-1.21,0,*43
1502042803.35,6387,24.25,74494.5,7.71,-1.25,-1.17,0,*47
1502042804.53,6388,24.25,74494.8,7.71,-1.29,-1.17,0,*44
1502042805.71,6389,24.25,74496.5,7.71,-1.29,-1.25,0,*44
1502042806.9,6390,24.25,74494.0,7.67,-1.33,-1.21,0,*44
1502042808.1,6391,24.25,74492.5,7.71,-1.35,-1.17,0,*41
1502042809.29,6392,24.25,74494.0,7.71,-1.29,-1.17,0,*4F
1502042810.49,6393,24.25,74492.8,7.71,-1.35,-1.17,0,*43
1502042811.68,6394,24.25,74492.8,7.67,-1.33,-1.29,0,*48
1502042812.88,6395,24.25,74496.3,7.71,-1.35,-1.25,0,*44
1502042814.06,6396,24.25,74494.8,7.71,-1.29,-1.25,0,*4A
1502042815.26,6397,24.25,74490.3,7.71,-1.35,-1.29,0,*4A
1502042816.44,6398,24.25,74492.3,7.67,-1.33,-1.33,0,*4F
1502042817.62,6399,24.25,74496.8,7.71,-1.29,-1.29,0,*49
1502042818.83,6400,24.25,74496.8,7.67,-1.39,-1.33,0,*43
1502042820.04,6401,24.25,74492.3,7.71,-1.35,-1.29,0,*42
1502042821.27,6402,24.25,74494.5,7.71,-1.35,-1.35,0,*4C
1502042822.45,6403,24.25,74488.5,7.67,-1.33,-1.33,0,*4A
1502042823.63,6404,24.25,74492.3,7.71,-1.29,-1.29,0,*4A
1502042824.84,6405,24.25,74492.5,7.71,-1.29,-1.13,0,*42
1502042826.04,6406,24.25,74492.5,7.71,-1.35,-1.17,0,*48
1502042827.22,6407,24.25,74494.5,7.71,-1.29,-1.17,0,*44
1502042828.41,6408,24.25,74492.3,7.71,-1.29,-1.17,0,*4B
1502042829.59,6409,24.25,74494.0,7.67,-1.33,-1.29,0,*4B
1502042830.82,6410,24.25,74492.8,7.73,-1.35,-1.29,0,*40
1502042832.03,6411,24.25,74494.0,7.67,-1.39,-1.33,0,*43
1502042833.26,6412,24.25,74494.5,7.71,-1.39,-1.35,0,*41
1502042834.5,6413,24.25,74492.3,7.67,-1.39,-1.47,0,*42
1502042835.73,6414,24.25,74492.3,7.67,-1.35,-1.35,0,*4C
1502042836.97,6415,24.25,74496.8,7.71,-1.39,-1.43,0,*47
1502042838.18,6416,24.25,74492.3,7.71,-1.39,-1.29,0,*48
1502042839.42,6417,24.25,74492.8,7.71,-1.39,-1.35,0,*44
1502042840.65,6418,24.25,74496.3,7.71,-1.39,-1.35,0,*4B
1502042841.89,6419,24.25,74492.8,7.67,-1.43,-1.39,0,*4C
1502042843.1,6420,24.25,74490.8,7.71,-1.39,-1.29,0,*4D
1502042844.33,6421,24.25,74490.5,7.71,-1.35,-1.35,0,*4D
1502042845.56,6422,24.25,74492.8,7.71,-1.35,-1.35,0,*4E
1502042846.77,6423,24.25,74494.3,7.71,-1.43,-1.51,0,*4C
1502042848.0,6424,24.25,74494.0,7.71,-1.47,-1.43,0,*4C
1502042849.21,6425,24.25,74492.8,7.67,-1.43,-1.55,0,*49
1502042850.41,6426,24.25,74492.8,7.71,-1.43,-1.55,0,*4D
1502042851.62,6427,24.25,74494.8,7.67,-1.43,-1.59,0,*47
1502042852.83,6428,24.25,74492.5,7.71,-1.39,-1.55,0,*4E
1502042854.03,6429,24.25,74494.0,7.67,-1.43,-1.59,0,*49
1502042855.23,6430,24.25,74494.5,7.67,-1.47,-1.59,0,*45
1502042856.44,6431,24.25,74492.5,7.67,-1.43,-1.59,0,*40
1502042857.64,6432,24.25,74492.8,7.67,-1.43,-1.59,0,*43
1502042858.85,6433,24.25,74492.3,7.67,-1.47,-1.59,0,*46
1502042860.08,6434,24.25,74492.5,7.67,-1.43,-1.47,0,*4A
1502042861.29,6435,24.25,74492.0,7.67,-1.43,-1.67,0,*49
1502042862.5,6436,24.25,74494.3,7.71,-1.39,-1.55,0,*41
1502042863.7,6437,24.25,74494.0,7.67,-1.43,-1.59,0,*46
1502042864.91,6438,24.25,74492.8,7.71,-1.43,-1.55,0,*42
1502042866.11,6439,24.25,74490.8,7.67,-1.43,-1.59,0,*48
1502042867.32,6440,24.25,74492.5,7.67,-1.47,-1.67,0,*4F
1502042868.53,6441,24.25,74494.5,7.67,-1.43,-1.55,0,*4B
1502042869.73,6442,24.25,74494.8,7.67,-1.47,-1.59,0,*40
1502042870.94,6443,24.25,74494.3,7.67,-1.43,-1.59,0,*45
1502042872.14,6444,24.25,74492.8,7.67,-1.43,-1.59,0,*42
1502042873.35,6445,24.25,74490.8,7.67,-1.39,-1.59,0,*4E
1502042874.56,6446,24.25,74494.3,7.71,-1.39,-1.55,0,*46
1502042875.76,6447,24.25,74492.8,7.67,-1.43,-1.59,0,*41
1502042876.97,6448,24.25,74492.3,7.67,-1.43,-1.59,0,*4E
1502042878.17,6449,24.25,74492.0,7.67,-1.43,-1.59,0,*4F
1502042879.38,6450,24.25,74494.8,7.67,-1.43,-1.59,0,*47
1502042880.58,6451,24.25,74494.3,7.67,-1.39,-1.59,0,*4B
1502042881.82,6452,24.25,74492.3,7.65,-1.43,-1.71,0,*4D
1502042883.06,6453,24.25,74490.5,7.65,-1.43,-1.63,0,*4F
1502042884.29,6454,24.25,74492.5,7.65,-1.43,-1.71,0,*4B
1502042885.53,6455,24.19,74488.0,7.65,-1.43,-1.63,0,*49
1502042886.73,6456,24.25,74492.0,7.65,-1.51,-1.71,0,*4A
1502042887.95,6457,24.19,74490.0,7.67,-1.43,-1.67,0,*4D
1502042889.16,6458,24.25,74492.3,7.71,-1.39,-1.63,0,*4C
1502042890.39,6459,24.19,74488.5,7.65,-1.47,-1.75,0,*46
1502042891.63,6460,24.25,74490.8,7.65,-1.47,-1.75,0,*4C
1502042892.86,6461,24.19,74488.5,7.65,-1.47,-1.75,0,*4D
1502042894.1,6462,24.25,74492.5,7.65,-1.47,-1.75,0,*4E
1502042895.33,6463,24.25,74494.0,7.65,-1.47,-1.75,0,*4F
1502042896.59,6464,24.25,74490.3,7.65,-1.47,-1.83,0,*41
1502042897.8,6465,24.25,74488.5,7.71,-1.43,-1.75,0,*48
1502042899.01,6466,24.19,74486.0,7.67,-1.43,-1.71,0,*48
1502042900.22,6467,24.25,74488.0,7.67,-1.39,-1.79,0,*4C
1502042901.44,6468,24.25,74490.8,7.67,-1.43,-1.71,0,*46
1502042902.67,6469,24.25,74490.8,7.65,-1.43,-1.75,0,*41
1502042903.9,6470,24.25,74494.0,7.65,-1.43,-1.75,0,*49
1502042905.16,6471,24.19,74488.3,7.65,-1.43,-1.83,0,*41
1502042906.38,6472,24.25,74492.0,7.67,-1.47,-1.71,0,*49
1502042907.61,6473,24.25,74496.0,7.65,-1.43,-1.75,0,*4A
1502042908.87,6474,24.25,74492.0,7.65,-1.43,-1.83,0,*44
1502042910.1,6475,24.25,74492.5,7.63,-1.47,-1.83,0,*47
1502042911.36,6476,24.25,74492.3,7.65,-1.47,-1.83,0,*42
1502042912.62,6477,24.19,74490.3,7.65,-1.47,-1.83,0,*43
1502042913.88,6478,24.25,74492.0,7.65,-1.47,-1.87,0,*48
1502042915.12,6479,24.25,74488.8,7.67,-1.43,-1.83,0,*4B
1502042916.38,6480,24.25,74488.5,7.65,-1.47,-1.87,0,*4F
1502042917.64,6481,24.25,74488.0,7.65,-1.47,-1.87,0,*4E